This is the latest recevied weather packets stored in our database for station/object LU3HGB-WX. If no packets are shown the sender has not sent any weather packets the latest 1 day(s).
| Time | Temp. | Humidity | Pressure | Rain* | Wind** | Luminosity | Snow |
|---|---|---|---|---|---|---|---|
| 1778099860 | 27.22° C | 41% | 1005 hPa | 0 mm | - | 130 W/m² | - |
| 1778099560 | 27.78° C | 38% | 1005 hPa | 0 mm | - | 149 W/m² | - |
| 1778098660 | 28.33° C | 37% | 1005 hPa | 0 mm | - | 194 W/m² | - |
| 1778097760 | 28.33° C | 36% | 1005 hPa | 0 mm | - | 249 W/m² | - |
| 1778096560 | 28.89° C | 34% | 1005 hPa | 0 mm | - | 312 W/m² | - |
| 1778096260 | 28.89° C | 34% | 1005 hPa | 0 mm | - | 329 W/m² | - |
| 1778094761 | 28.33° C | 36% | 1005 hPa | 0 mm | - | 409 W/m² | - |
| 1778094459 | 27.78° C | 39% | 1005 hPa | 0 mm | - | 426 W/m² | - |
| 1778092660 | 27.78° C | 40% | 1005 hPa | 0 mm | - | 512 W/m² | - |
| 1778092060 | 27.78° C | 41% | 1006 hPa | 0 mm | - | 539 W/m² | - |
| 1778091760 | 27.78° C | 41% | 1006 hPa | 0 mm | - | 548 W/m² | - |
| 1778091460 | 27.78° C | 42% | 1006 hPa | 0 mm | - | 561 W/m² | - |
| 1778090563 | 27.78° C | 41% | 1006 hPa | 0 mm | - | 597 W/m² | - |
| 1778090260 | 27.78° C | 42% | 1006 hPa | 0 mm | - | 604 W/m² | - |
| 1778089960 | 27.78° C | 47% | 1007 hPa | 0 mm | - | 614 W/m² | - |
| 1778089360 | 27.22° C | 42% | 1007 hPa | 0 mm | - | 634 W/m² | - |
| 1778088760 | 27.22° C | 43% | 1007 hPa | 0 mm | - | 653 W/m² | - |
| 1778088160 | 27.22° C | 43% | 1007 hPa | 0 mm | - | 663 W/m² | - |
| 1778087560 | 27.78° C | 45% | 1007 hPa | 0 mm | - | 673 W/m² | - |
| 1778087260 | 27.22° C | 47% | 1007 hPa | 0 mm | - | 678 W/m² | - |
| 1778086960 | 27.22° C | 43% | 1007 hPa | 0 mm | - | 684 W/m² | - |
| 1778086660 | 27.22° C | 44% | 1008 hPa | 0 mm | - | 688 W/m² | - |
| 1778086360 | 27.22° C | 43% | 1008 hPa | 0 mm | - | 693 W/m² | - |
| 1778086060 | 26.67° C | 47% | 1008 hPa | 0 mm | - | 695 W/m² | - |
| 1778085760 | 26.67° C | 48% | 1008 hPa | 0 mm | - | 696 W/m² | - |
* Rain latest hour (hover to see other rain measurements)
** Current wind speed in m/s (hover to see current wind gust speed)